This is the latest recevied weather packets stored in our database for station/object 9M2IBR-1. If no packets are shown the sender has not sent any weather packets the latest 10 day(s).
| Time | Temp. | Humidity | Pressure | Rain* | Wind** | Luminosity | Snow |
|---|---|---|---|---|---|---|---|
| 1778038816 | 28.33° C | 89% | 1009.2 hPa | 0 mm | - | 221 W/m² | - |
| 1778037321 | 30° C | 85% | 1009.4 hPa | 0 mm | - | 79 W/m² | - |
| 1778035523 | 31.67° C | 82% | 1009.3 hPa | 0 mm | - | 633 W/m² | - |
| 1778034617 | 30.56° C | 85% | 1009.3 hPa | 0 mm | - | 451 W/m² | - |
| 1778034028 | 30.56° C | 85% | 1009.4 hPa | 0 mm | - | 327 W/m² | - |
| 1778033727 | 30° C | 85% | 1009.4 hPa | 0 mm | - | 279 W/m² | - |
| 1778033123 | 30° C | 85% | 1009.3 hPa | 0 mm | - | 330 W/m² | - |
| 1778031023 | 28.89° C | 88% | 1009.2 hPa | 0 mm | - | 241 W/m² | - |
| 1778025351 | 26.11° C | 99% | 1007.9 hPa | 0 mm | - | 52 W/m² | - |
| 1778019934 | 25.56° C | 99% | 1007.1 hPa | 0 mm | - | 0 W/m² | - |
| 1778019320 | 25.56° C | 99% | 1006.9 hPa | 0 mm | - | 0 W/m² | - |
| 1778017825 | 25.56° C | 99% | 1006.7 hPa | 0 mm | - | 0 W/m² | - |
| 1778016924 | 25.56° C | 99% | 1006.8 hPa | 0 mm | - | 0 W/m² | - |
| 1778016617 | 25.56° C | 98% | 1006.8 hPa | 0 mm | - | 0 W/m² | - |
| 1778014518 | 25.56° C | 98% | 1006.7 hPa | 0 mm | - | 0 W/m² | - |
| 1778013929 | 25.56° C | 98% | 1006.6 hPa | 0 mm | - | 0 W/m² | - |
| 1778013329 | 25.56° C | 98% | 1006.5 hPa | 0 mm | - | 0 W/m² | - |
| 1778009427 | 26.11° C | 98% | 1006.9 hPa | 0 mm | - | 0 W/m² | - |
| 1778006745 | 26.11° C | 98% | 1007.6 hPa | 0 mm | - | 0 W/m² | - |
| 1778005250 | 26.11° C | 98% | 1007.9 hPa | 0 mm | - | 0 W/m² | - |
| 1778002563 | 26.11° C | 97% | 1008 hPa | 0 mm | - | 0 W/m² | - |
| 1778001923 | 26.11° C | 97% | 1008 hPa | 0 mm | - | 0 W/m² | - |
| 1778000429 | 26.11° C | 96% | 1008.1 hPa | 0 mm | - | 0 W/m² | - |
| 1777998617 | 26.67° C | 96% | 1008.2 hPa | 0 mm | - | 0 W/m² | - |
| 1777995023 | 26.67° C | 96% | 1008 hPa | 0 mm | - | 0 W/m² | - |
* Rain latest hour (hover to see other rain measurements)
** Current wind speed in m/s (hover to see current wind gust speed)